• In Uzbekistan
  • List of Countries
  • For 7 days
  • Water Temperature
  • Satellite Maps
  • Weather Map
  • Weather Widgets
  • user-avatar
    Login

    Hourly Weather Yasnaya Polyana

    Today, 18 August, Saturday

    Time Temperature Precipitation Wind Pressure Humidity
    00:00 +15°C° 0 mm 2 mps 747 mmHg 74%
    01:00 +14°C° 0 mm 2 mps 747 mmHg 75%
    02:00 +14°C° 0 mm 2 mps 747 mmHg 77%
    03:00 +14°C° 0 mm 2 mps 748 mmHg 78%
    04:00 +14°C° 0 mm 2 mps 748 mmHg 80%
    05:00 +13°C° 0 mm 2 mps 748 mmHg 81%
    06:00 +13°C° 0 mm 2 mps 748 mmHg 83%
    07:00 +15°C° 0 mm 2 mps 748 mmHg 77%
    08:00 +17°C° 0 mm 2 mps 748 mmHg 72%
    09:00 +19°C° 0 mm 2 mps 748 mmHg 67%
    10:00 +20°C° 0 mm 2 mps 748 mmHg 62%
    11:00 +21°C° 0 mm 2 mps 748 mmHg 57%
    12:00 +23°C° 0 mm 2 mps 748 mmHg 52%
    13:00 +24°C° 0 mm 2 mps 748 mmHg 50%
    14:00 +24°C° 0 mm 2 mps 748 mmHg 49%
    15:00 +24°C° 0 mm 2 mps 748 mmHg 47%
    16:00 +24°C° 0 mm 2 mps 748 mmHg 51%
    17:00 +24°C° 0 mm 2 mps 747 mmHg 55%
    18:00 +24°C° 0 mm 1 mps 747 mmHg 58%
    19:00 +22°C° 0 mm 1 mps 747 mmHg 61%
    20:00 +20°C° 0 mm 1 mps 747 mmHg 64%
    21:00 +18°C° 0 mm 1 mps 747 mmHg 68%
    22:00 +16°C° 0 mm 1 mps 748 mmHg 69%
    23:00 +16°C° 0 mm 1 mps 748 mmHg 70%

    Tomorrow, 19 August, Sunday

    Time Temperature Precipitation Wind Pressure Humidity
    00:00 +16°C° 0 mm 1 mps 748 mmHg 71%
    01:00 +15°C° 0 mm 1 mps 748 mmHg 73%
    02:00 +15°C° 0 mm 1 mps 748 mmHg 74%
    03:00 +14°C° 0 mm 1 mps 748 mmHg 75%
    04:00 +14°C° 0 mm 1 mps 748 mmHg 77%
    05:00 +14°C° 0 mm 1 mps 748 mmHg 78%
    06:00 +14°C° 0 mm 2 mps 748 mmHg 80%
    07:00 +16°C° 0 mm 2 mps 748 mmHg 75%
    08:00 +18°C° 0 mm 2 mps 748 mmHg 69%
    09:00 +20°C° 0 mm 2 mps 748 mmHg 64%
    10:00 +21°C° 0 mm 3 mps 748 mmHg 60%
    11:00 +22°C° 0 mm 3 mps 748 mmHg 56%
    12:00 +24°C° 0 mm 3 mps 747 mmHg 52%
    13:00 +25°C° 0 mm 3 mps 747 mmHg 51%
    14:00 +25°C° 0 mm 3 mps 747 mmHg 51%
    15:00 +26°C° 0 mm 4 mps 746 mmHg 50%
    16:00 +25°C° 0 mm 3 mps 746 mmHg 54%
    17:00 +25°C° 0 mm 3 mps 746 mmHg 58%
    18:00 +24°C° 0 mm 3 mps 745 mmHg 62%
    19:00 +22°C° 0 mm 3 mps 745 mmHg 65%
    20:00 +20°C° 0 mm 3 mps 745 mmHg 68%
    21:00 +18°C° 0 mm 3 mps 745 mmHg 71%
    22:00 +18°C° 0 mm 3 mps 745 mmHg 71%
    23:00 +17°C° 0 mm 3 mps 745 mmHg 72%

    Day after tomorrow, 20 August, Monday

    Time Temperature Precipitation Wind Pressure Humidity
    00:00 +17°C° 0 mm 3 mps 745 mmHg 72%
    01:00 +16°C° 0 mm 3 mps 744 mmHg 72%
    02:00 +16°C° 0 mm 3 mps 744 mmHg 73%
    03:00 +16°C° 0 mm 3 mps 744 mmHg 73%
    04:00 +16°C° 0 mm 3 mps 744 mmHg 74%
    05:00 +14°C° 0 mm 3 mps 744 mmHg 76%
    06:00 +14°C° 0 mm 3 mps 744 mmHg 77%
    07:00 +17°C° 0 mm 4 mps 744 mmHg 73%
    08:00 +19°C° 0 mm 4 mps 744 mmHg 70%
    09:00 +20°C° 0 mm 4 mps 744 mmHg 66%
    10:00 +22°C° 0 mm 5 mps 743 mmHg 64%
    11:00 +23°C° 0 mm 5 mps 743 mmHg 62%
    12:00 +25°C° 0 mm 5 mps 743 mmHg 59%
    13:00 +26°C° 0.4 mm 5 mps 743 mmHg 60%
    14:00 +26°C° 0.4 mm 5 mps 743 mmHg 60%
    15:00 +26°C° 0.4 mm 5 mps 742 mmHg 60%
    16:00 +26°C° 0.3 mm 5 mps 742 mmHg 64%
    17:00 +25°C° 0.3 mm 4 mps 742 mmHg 69%
    18:00 +25°C° 0.3 mm 3 mps 742 mmHg 73%
    19:00 +22°C° 0 mm 3 mps 742 mmHg 77%
    20:00 +21°C° 0 mm 3 mps 742 mmHg 81%
    21:00 +20°C° 0 mm 2 mps 742 mmHg 85%
    22:00 +19°C° 0 mm 2 mps 742 mmHg 87%
    23:00 +19°C° 0 mm 2 mps 742 mmHg 88%

    21 August, Tuesday

    Time Temperature Precipitation Wind Pressure Humidity
    00:00 +18°C° 0 mm 2 mps 742 mmHg 90%
    01:00 +18°C° 0 mm 2 mps 742 mmHg 91%
    02:00 +17°C° 0 mm 2 mps 742 mmHg 91%
    03:00 +17°C° 0 mm 2 mps 742 mmHg 92%
    04:00 +18°C° 0 mm 1 mps 742 mmHg 93%
    05:00 +18°C° 0 mm 1 mps 741 mmHg 93%
    06:00 +16°C° 0 mm 1 mps 741 mmHg 93%
    07:00 +18°C° 0 mm 2 mps 741 mmHg 88%
    08:00 +20°C° 0 mm 2 mps 741 mmHg 83%
    09:00 +21°C° 0 mm 2 mps 741 mmHg 77%
    10:00 +22°C° 0 mm 3 mps 741 mmHg 72%
    11:00 +25°C° 0 mm 4 mps 741 mmHg 67%
    12:00 +26°C° 0 mm 4 mps 740 mmHg 62%
    13:00 +26°C° 0 mm 5 mps 740 mmHg 61%
    14:00 +27°C° 0 mm 5 mps 739 mmHg 59%
    15:00 +27°C° 0 mm 6 mps 739 mmHg 58%
    16:00 +26°C° 0.1 mm 5 mps 738 mmHg 61%
    17:00 +26°C° 0.1 mm 5 mps 738 mmHg 65%
    18:00 +25°C° 0.1 mm 5 mps 737 mmHg 69%
    19:00 +23°C° 0.6 mm 5 mps 737 mmHg 75%
    20:00 +21°C° 0.6 mm 4 mps 737 mmHg 80%
    21:00 +20°C° 0.6 mm 4 mps 737 mmHg 85%
    22:00 +19°C° 0.5 mm 4 mps 737 mmHg 87%
    23:00 +19°C° 0.5 mm 4 mps 737 mmHg 89%

    22 August, Wednesday

    Time Temperature Precipitation Wind Pressure Humidity
    00:00 +19°C° 0.5 mm 4 mps 737 mmHg 92%
    01:00 +17°C° 0.1 mm 4 mps 737 mmHg 92%
    02:00 +15°C° 0.1 mm 4 mps 737 mmHg 92%
    03:00 +14°C° 0.1 mm 4 mps 738 mmHg 92%
    04:00 +13°C° 0 mm 4 mps 738 mmHg 93%
    05:00 +12°C° 0 mm 4 mps 739 mmHg 93%
    06:00 +11°C° 0 mm 4 mps 739 mmHg 94%
    07:00 +13°C° 0 mm 5 mps 740 mmHg 87%
    08:00 +14°C° 0 mm 5 mps 740 mmHg 79%
    09:00 +15°C° 0 mm 6 mps 741 mmHg 72%
    10:00 +16°C° 0 mm 6 mps 741 mmHg 65%
    11:00 +17°C° 0 mm 6 mps 741 mmHg 58%
    12:00 +20°C° 0 mm 6 mps 741 mmHg 52%
    13:00 +20°C° 0 mm 6 mps 741 mmHg 50%
    14:00 +20°C° 0 mm 6 mps 742 mmHg 49%
    15:00 +21°C° 0 mm 6 mps 742 mmHg 47%
    16:00 +20°C° 0 mm 5 mps 742 mmHg 52%
    17:00 +20°C° 0 mm 4 mps 742 mmHg 56%
    18:00 +19°C° 0 mm 3 mps 742 mmHg 60%
    19:00 +18°C° 0 mm 3 mps 743 mmHg 64%
    20:00 +16°C° 0 mm 3 mps 743 mmHg 67%
    21:00 +13°C° 0 mm 3 mps 743 mmHg 70%
    22:00 +13°C° 0 mm 3 mps 743 mmHg 72%
    23:00 +12°C° 0 mm 3 mps 743 mmHg 74%

    23 August, Thursday

    Time Temperature Precipitation Wind Pressure Humidity
    00:00 +13°C° 0 mm 2 mps 744 mmHg 76%
    01:00 +12°C° 0 mm 2 mps 744 mmHg 78%
    02:00 +12°C° 0 mm 2 mps 744 mmHg 80%
    03:00 +10°C° 0 mm 2 mps 744 mmHg 82%
    04:00 +10°C° 0 mm 2 mps 744 mmHg 83%
    05:00 +10°C° 0 mm 2 mps 744 mmHg 84%
    06:00 +10°C° 0 mm 2 mps 744 mmHg 85%
    07:00 +13°C° 0 mm 2 mps 744 mmHg 78%
    08:00 +14°C° 0 mm 2 mps 744 mmHg 72%
    09:00 +16°C° 0 mm 3 mps 744 mmHg 66%
    10:00 +18°C° 0 mm 3 mps 744 mmHg 61%
    11:00 +19°C° 0 mm 4 mps 743 mmHg 57%
    12:00 +20°C° 0 mm 4 mps 743 mmHg 52%
    13:00 +21°C° 0 mm 5 mps 743 mmHg 51%
    14:00 +21°C° 0 mm 5 mps 743 mmHg 50%
    15:00 +22°C° 0 mm 5 mps 742 mmHg 49%
    16:00 +22°C° 0 mm 5 mps 742 mmHg 54%
    17:00 +21°C° 0 mm 4 mps 742 mmHg 58%
    18:00 +21°C° 0 mm 3 mps 741 mmHg 63%
    19:00 +20°C° 0 mm 3 mps 741 mmHg 67%
    20:00 +18°C° 0 mm 4 mps 741 mmHg 71%
    21:00 +17°C° 0 mm 4 mps 741 mmHg 75%
    22:00 +17°C° 0 mm 4 mps 741 mmHg 78%
    23:00 +15°C° 0 mm 4 mps 741 mmHg 80%
    Show more